Voltar ao catálogo

STARLINK-5265

AtivoComunicaçõesVLEO
NORAD 55317·PAYLOAD·🇺🇸 United States

Lançado Jan 19, 2023 de Vandenberg Space Force Base

Loading…

Próximas Passagens (próximas 24 horas)

TLE

AtualizadoSource: CelesTrak SupGP

Época: Sep 14, 2026, 21:47 UTC

1 55317C 23010BA  26257.90812500  .00780200  00000+0  56314-1 0  2577
2 55317  69.9998 247.3614 0003083 266.0804 183.6411 15.03629864    19

Acompanhe STARLINK-5265 em tempo real com AllMySat

Download on the App Store